Regional Weather Roundup
Issued by NWS

Home | Current Version | Previous Version | Graphics & Text | Print | Product List | Glossary On
Versions: 1 2 3 4 5 6 7 8 9 10 11 12 13 14 15 16 17 18 19 20 21 22 23 24 25 26 27 28 29 30 31 32 33 34 35 36 37 38 39 40 41 42 43 44 45 46 47 48 49 50
000
ASUS44 KMEG 271500
RWRTN
TENNESSEE HOURLY STATE WEATHER ROUNDUP
NATIONAL WEATHER SERVICE MEMPHIS TN
1000 AM CDT WED AUG 27 2014

TNZ002-004-019-021-049-052-054-088>092-271600-
WEST TENNESSEE

CITY           SKY/WX    TMP DP  RH WIND       PRES   REMARKS
MEMPHIS INTL   MOSUNNY   86  66  51 CALM      30.10R
NWS MEMPHIS      N/A     84 N/A N/A MISG        N/A
JACKSON        SUNNY     82  69  64 CALM      30.11R
DYERSBURG      MOSUNNY   81  66  61 CALM      30.11S
UNION CITY     SUNNY     82  75  78 CALM      30.10R
PARIS          SUNNY     81  72  74 SW3       30.12R
LEXINGTON      SUNNY     82  70  65 CALM      30.11R
SAVANNAH       SUNNY     82  72  69 CALM      30.12R
$$

TNZ008-025-027-028-033-062-065-066-271600-
NORTH MIDDLE TENNESSEE

CITY           SKY/WX    TMP DP  RH WIND       PRES   REMARKS
NASHVILLE      MOSUNNY   85  71  63 NW3       30.12R HX  90
CLARKSVILLE    SUNNY     84  74  71 CALM      30.11R HX  91
COOKEVILLE     MOSUNNY   79  72  78 CALM      30.14R
CROSSVILLE     MOSUNNY   78  66  66 CALM      30.18R
$$

TNZ061-075-076-078-094-096-097-271600-
SOUTH MIDDLE TENNESSEE

CITY           SKY/WX    TMP DP  RH WIND       PRES   REMARKS
FAYETTEVILLE   SUNNY     79  70  73 SE8G31    30.14R
TULLAHOMA      SUNNY     81  66  61 CALM      30.15S
WINCHESTER     SUNNY     79  70  73 CALM      30.14S
COLUMBIA         N/A     82  73  74 CALM      30.11S
SHELBYVILLE    SUNNY     84  73  70 CALM      30.14R HX  91
$$

TNZ017-018-042-046-047-271600-
NORTHEAST TENNESSEE

CITY           SKY/WX    TMP DP  RH WIND       PRES   REMARKS
TRI CITIES     MOSUNNY   72  60  66 CALM      30.18S
ELIZABETHTON   SUNNY     72  59  64 CALM      30.17F
$$

TNZ012-013-036-069-073-074-271600-
CENTRAL EAST TENNESSEE

CITY           SKY/WX    TMP DP  RH WIND       PRES   REMARKS
KNOXVILLE      MOSUNNY   77  65  66 CALM      30.14S
OAK RIDGE      SUNNY     77  67  71 VRB3      30.16R
GATLINBURG     SUNNY     77  63  61 CALM      30.14S
$$

TNZ083-085-099-271600-
SOUTHEAST TENNESSEE

CITY           SKY/WX    TMP DP  RH WIND       PRES   REMARKS
CHATTANOOGA    MOSUNNY   81  63  54 VRB6      30.14R
$$

SKY/WX REPORTED AS FAIR MEANS FEW OR NO CLOUDS BELOW
12 THOUSAND FEET.




USA.gov is the U.S. government's official web portal to all federal, state and local government web resources and services.